Regional Weather Roundup
Issued by NWS

Home | Current Version | Previous Version | Text Only | Print | Product List | Glossary Off
Versions: 1 2 3 4 5 6 7 8 9 10 11 12 13 14 15 16 17 18 19 20 21 22 23 24 25 26 27 28 29 30 31 32 33 34 35 36 37 38 39 40 41 42 43 44 45 46 47 48 49 50

000
ASUS43 KLSX 270207
RWRMO

WEATHER SUMMARY FOR MISSOURI
NATIONAL WEATHER SERVICE SPRINGFIELD MO
900 PM CDT TUE AUG 26 2014

NOTE: "FAIR" INDICATES FEW OR NO CLOUDS BELOW 12,000 FEET WITH NO
       SIGNIFICANT WEATHER AND/OR OBSTRUCTIONS TO VISIBILITY.
       CURRENT SKY AND/OR WEATHER CONDITIONS ARE NOT AVAILABLE FOR
       CHILLICOTHE AND FARMINGTON.

MOZ001>031-035>038-043-044-053-054-270300-
...NORTHERN AND WESTERN MISSOURI...

CITY           SKY/WX    TMP DP  RH WIND       PRES   REMARKS
KANSAS CTY INT CLOUDY    81  73  76 E10       30.07R
KANSAS C DTWN  MOCLDY    84  73  69 E12       30.05R HX  90
LEE`S SUMMIT   PTCLDY    82  73  74 E8        30.07S
ST JOSEPH      CLOUDY    77  73  87 N8        30.08R
CHILLICOTHE      N/A     79  72  79 NE3       30.10R
KIRKSVILLE     CLEAR     73  70  90 N5        30.10S

$$
MOZ066>068-077>081-088>096-101>105-270300-
...SOUTHWEST MISSOURI...

CITY           SKY/WX    TMP DP  RH WIND       PRES   REMARKS
SPRINGFIELD    CLOUDY    77  68  73 SE6       30.07F
JOPLIN         PTCLDY    82  68  62 E8        30.06R

$$
MOZ032>034-039>042-045>050-055>058-069>072-270300-
...CENTRAL MISSOURI...

CITY           SKY/WX    TMP DP  RH WIND       PRES   REMARKS
COLUMBIA       MOCLDY    80  70  71 NW6       30.08R
JEFFERSON CITY CLOUDY    80  69  69 N3        30.05R
ROLLA          CLOUDY    73  67  81 S3        30.06S
SEDALIA        PTCLDY    80  70  71 CALM      30.08R
WHITEMAN AFB   CLEAR     78  65  62 CALM      30.07R
OSAGE BEACH    CLOUDY    75  64  69 CALM      30.06S

$$
MOZ051-052-059>065-270300-
...EAST CENTRAL MISSOURI...

CITY           SKY/WX    TMP DP  RH WIND       PRES   REMARKS
ST LOUIS INTL  CLOUDY    84  71  65 CALM      30.05R
SPIRIT OF STL  CLOUDY    81  73  76 CALM      30.03R
ST CHARLES     CLOUDY    79  74  84 CALM      30.03R

$$
MOZ072>076-082>087-097>100-106>115-270300-
...SOUTH CENTRAL AND SOUTHEAST MISSOURI...

CITY           SKY/WX    TMP DP  RH WIND       PRES   REMARKS
CAPE GIRARDEAU CLEAR     81  76  84 S6        30.04S
FARMINGTON     MOCLDY    82  68  61 CALM      30.09S
POPLAR BLUFF   CLEAR     80  71  74 CALM      30.04R
WEST PLAINS    CLEAR     79  66  64 CALM      30.09S

$$


USA.gov is the U.S. government's official web portal to all federal, state and local government web resources and services.